Sauk Centre, MN

3:33 PM CST on December 09, 2019 (GMT -0600)
Sauk Centre

Weather History for KD39 - October, 2019

Change the Weather History Date:

Friday, October 18, 2019

  Actual Average (KGHW) Record (KGHW)
Temperature  
Mean Temperature 54 °F -  
Max Temperature 64 °F 55 °F 78 °F (1953)
Min Temperature 43 °F 33 °F 12 °F (1972)
Degree Days  
Heating Degree Days 12    
Growing Degree Days 4 (Base 50)    
Moisture  
Dew Point 42 °F    
Average Humidity 72    
Maximum Humidity 86    
Minimum Humidity 49    
Precipitation  
Precipitation 0.00 in - - ()
Sea Level Pressure  
Sea Level Pressure 29.59 in    
Wind  
Wind Speed 12 mph ()    
Max Wind Speed 23 mph    
Max Gust Speed 31 mph    
Visibility 10.0 miles    
Events      
Averages and records for this station are not official NWS values.
T = Trace of Precipitation, MM = Missing Value Source: Averaged Metar Reports

Daily Weather History Graph

Daily Weather History Graph

Search for Another Location

Airport or City:

Astronomy

Oct. 18, 2019 Rise Set
Actual Time 7:40 AM CDT 6:29 PM CDT
Civil Twilight 7:09 AM CDT 6:59 PM CDT
Nautical Twilight 6:35 AM CDT 7:33 PM CDT
Astronomical Twilight 6:00 AM CDT 8:07 PM CDT
Moon 9:34 PM CDT (10/18) 12:25 PM CDT (10/18)
Length of Visible Light 11h 49m
Length of Day
10h 48m
Waning Gibbous, 78% of the Moon is Illuminated
Oct 18
Waning Gibbous
Oct 21
Last Quarter
Oct 27
New
Nov 4
First Quarter
Nov 12
Full

Hourly Weather History & Observations

Time (CDT) Temp. Windchill Dew Point Humidity Pressure Visibility Wind Dir Wind Speed Gust Speed Precip Events Conditions
12:15 AM 45.5 °F 39.6 °F 37.9 °F 75% 29.79 in 10.0 mi SE 12.7 mph 17.3 mph N/A   Clear
12:16 AM 45.5 °F 39.9 °F 37.9 °F 75% 29.79 in 10.0 mi SE 11.5 mph 17.3 mph N/A   Clear
12:35 AM 45.5 °F 39.9 °F 37.8 °F 74% 29.79 in 10.0 mi SE 11.5 mph - N/A   Clear
12:36 AM 45.5 °F 39.6 °F 37.9 °F 75% 29.79 in 10.0 mi SE 12.7 mph 17.3 mph N/A   Clear
12:58 AM 45.9 °F 39.7 °F 37.8 °F 73% 29.77 in 10.0 mi ESE 13.8 mph - N/A   Clear
1:17 AM 45.5 °F 39.6 °F 37.9 °F 75% 29.78 in 10.0 mi SE 12.7 mph 18.4 mph N/A   Clear
1:36 AM 45.0 °F 38.5 °F 37.9 °F 76% 29.77 in 10.0 mi SE 13.8 mph 18.4 mph N/A   Clear
1:55 AM 45.1 °F 39.1 °F 38.1 °F 76% 29.76 in 10.0 mi SE 12.7 mph - N/A   Clear
1:56 AM 45.1 °F 39.5 °F 38.1 °F 76% 29.76 in 10.0 mi ESE 11.5 mph - N/A   Clear
2:15 AM 44.8 °F 39.0 °F 38.3 °F 78% 29.76 in 10.0 mi ESE 11.5 mph 17.3 mph N/A   Clear
2:19 AM 44.6 °F 39.2 °F 38.1 °F 78% 29.76 in 10.0 mi ESE 10.4 mph 17.3 mph N/A   Clear
2:38 AM 44.2 °F 38.0 °F 38.3 °F 80% 29.75 in 10.0 mi ESE 12.7 mph 18.4 mph N/A   Clear
2:56 AM 44.6 °F 38.4 °F 38.3 °F 79% 29.74 in 10.0 mi SE 12.7 mph 19.6 mph N/A   Clear
3:15 AM 44.4 °F 38.2 °F 38.3 °F 79% 29.74 in 10.0 mi SE 12.7 mph - N/A   Clear
3:35 AM 43.5 °F 37.5 °F 38.3 °F 82% 29.72 in 10.0 mi ESE 11.5 mph - N/A   Clear
3:36 AM 43.3 °F 36.8 °F 38.3 °F 82% 29.72 in 10.0 mi ESE 12.7 mph - N/A   Clear
3:59 AM 43.7 °F 36.6 °F 38.3 °F 81% 29.72 in 10.0 mi ESE 15.0 mph 20.7 mph N/A   Clear
4:16 AM 43.7 °F 36.6 °F 38.3 °F 81% 29.70 in 10.0 mi SE 15.0 mph - N/A   Clear
4:36 AM 43.3 °F 36.5 °F 38.5 °F 83% 29.70 in 10.0 mi SE 13.8 mph 18.4 mph N/A   Clear
4:55 AM 43.3 °F 36.8 °F 38.5 °F 83% 29.69 in 10.0 mi SE 12.7 mph 19.6 mph N/A   Clear
4:56 AM 43.5 °F 37.1 °F 38.5 °F 82% 29.69 in 10.0 mi SE 12.7 mph 19.6 mph N/A   Clear
5:15 AM 43.7 °F 36.6 °F 38.7 °F 82% 29.68 in 10.0 mi SE 15.0 mph 23.0 mph N/A   Clear
5:19 AM 43.5 °F 36.4 °F 38.7 °F 83% 29.68 in 10.0 mi SE 15.0 mph 23.0 mph N/A   Clear
5:38 AM 43.3 °F 36.5 °F 38.8 °F 84% 29.67 in 10.0 mi SE 13.8 mph - N/A   Clear
5:55 AM 43.2 °F 36.2 °F 38.8 °F 85% 29.66 in 10.0 mi SE 13.8 mph 18.4 mph N/A   Clear
6:15 AM 43.7 °F 36.3 °F 39.2 °F 84% 29.66 in 10.0 mi ESE 16.1 mph 24.2 mph N/A   Clear
6:16 AM 43.7 °F 36.6 °F 39.2 °F 84% 29.66 in 10.0 mi ESE 15.0 mph 24.2 mph N/A   Clear
6:35 AM 43.2 °F 36.2 °F 39.2 °F 86% 29.66 in 10.0 mi ESE 13.8 mph 19.6 mph N/A   Clear
6:36 AM 43.2 °F 35.9 °F 39.2 °F 86% 29.66 in 10.0 mi ESE 15.0 mph 19.6 mph N/A   Clear
6:59 AM 43.3 °F 36.5 °F 39.2 °F 85% 29.66 in 10.0 mi SE 13.8 mph - N/A   Clear
7:16 AM 43.2 °F 35.9 °F 39.2 °F 86% 29.65 in 10.0 mi SE 15.0 mph 19.6 mph N/A   Clear
7:35 AM 43.0 °F 36.4 °F 39.2 °F 86% 29.65 in 10.0 mi SE 12.7 mph - N/A   Clear
7:36 AM 43.0 °F 36.8 °F 39.2 °F 86% 29.65 in 10.0 mi SE 11.5 mph - N/A   Clear
7:55 AM 43.0 °F 35.7 °F 39.2 °F 86% 29.64 in 10.0 mi SE 15.0 mph 19.6 mph N/A   Clear
7:56 AM 43.0 °F 35.7 °F 39.2 °F 86% 29.64 in 10.0 mi SE 15.0 mph 19.6 mph N/A   Clear
8:15 AM 43.2 °F 36.2 °F 39.4 °F 86% 29.63 in 10.0 mi SE 13.8 mph - N/A   Clear
8:19 AM 43.3 °F 36.5 °F 39.4 °F 86% 29.63 in 10.0 mi SE 13.8 mph 20.7 mph N/A   Clear
8:37 AM 44.4 °F 36.9 °F 39.7 °F 84% 29.62 in 10.0 mi SE 17.3 mph 23.0 mph N/A   Clear
8:55 AM 45.5 °F 38.1 °F 40.3 °F 82% 29.61 in 10.0 mi SE 18.4 mph 23.0 mph N/A   Clear
9:15 AM 45.7 °F 38.6 °F 40.3 °F 81% 29.61 in 10.0 mi SE 17.3 mph 20.7 mph N/A   Clear
9:16 AM 45.7 °F 39.1 °F 40.3 °F 81% 29.61 in 10.0 mi SE 15.0 mph 20.7 mph N/A   Clear
9:35 AM 47.5 °F - 41.0 °F 78% 29.60 in 10.0 mi SE 17.3 mph 24.2 mph N/A   Clear
9:36 AM 47.5 °F - 41.0 °F 78% 29.60 in 10.0 mi SE 17.3 mph 24.2 mph N/A   Clear
9:59 AM 48.2 °F - 41.2 °F 77% 29.60 in 10.0 mi SE 16.1 mph 23.0 mph N/A   Clear
10:16 AM 50.0 °F - 42.1 °F 74% 29.60 in 10.0 mi SE 15.0 mph 25.3 mph N/A   Clear
10:36 AM 51.4 °F - 42.4 °F 71% 29.60 in 10.0 mi SE 16.1 mph 24.2 mph N/A   Clear
10:55 AM 53.6 °F - 42.8 °F 67% 29.59 in 10.0 mi SSE 15.0 mph 21.9 mph N/A   Clear
11:15 AM 54.7 °F - 43.2 °F 65% 29.58 in 10.0 mi SSE 20.7 mph 25.3 mph N/A   Clear
11:19 AM 55.2 °F - 43.5 °F 65% 29.58 in 10.0 mi SSE 16.1 mph 24.2 mph N/A   Clear
11:38 AM 55.0 °F - 43.0 °F 64% 29.58 in 10.0 mi SSE 19.6 mph 24.2 mph N/A   Clear
11:55 AM 55.6 °F - 43.5 °F 64% 29.57 in 10.0 mi SSE 17.3 mph 23.0 mph N/A   Clear
12:15 PM 57.0 °F - 43.9 °F 61% 29.56 in 10.0 mi SE 18.4 mph 25.3 mph N/A   Clear
12:35 PM 57.7 °F - 43.7 °F 60% 29.55 in 10.0 mi SSE 20.7 mph 27.6 mph N/A   Clear
12:36 PM 57.9 °F - 43.7 °F 59% 29.55 in 10.0 mi SSE 20.7 mph 27.6 mph N/A   Clear
12:59 PM 59.2 °F - 44.4 °F 58% 29.53 in 10.0 mi SE 19.6 mph 27.6 mph N/A   Clear
1:16 PM 59.4 °F - 44.4 °F 58% 29.52 in 10.0 mi SE 18.4 mph 25.3 mph N/A   Clear
1:36 PM 59.4 °F - 45.0 °F 59% 29.51 in 10.0 mi SE 23.0 mph 27.6 mph N/A   Clear
1:55 PM 60.3 °F - 44.8 °F 57% 29.50 in 10.0 mi SE 19.6 mph 25.3 mph N/A   Clear
1:56 PM 60.4 °F - 44.8 °F 56% 29.50 in 10.0 mi SE 19.6 mph 25.3 mph N/A   Clear
2:15 PM 61.3 °F - 45.0 °F 55% 29.49 in 10.0 mi SE 16.1 mph 26.5 mph N/A   Clear
2:37 PM 61.0 °F - 44.8 °F 55% 29.47 in 10.0 mi SE 19.6 mph 29.9 mph N/A   Clear
2:55 PM 61.7 °F - 45.0 °F 54% 29.45 in 10.0 mi SE 19.6 mph 28.8 mph N/A   Clear
3:15 PM 62.6 °F - 45.3 °F 53% 29.43 in 10.0 mi SE 15.0 mph 27.6 mph N/A   Clear
3:16 PM 62.8 °F - 45.5 °F 53% 29.43 in 10.0 mi SE 16.1 mph 27.6 mph N/A   Clear
3:35 PM 63.7 °F - 45.7 °F 52% 29.47 in 10.0 mi SSE 21.9 mph 31.1 mph N/A   Clear
3:36 PM 63.7 °F - 45.7 °F 52% 29.47 in 10.0 mi SSE 21.9 mph 28.8 mph N/A   Clear
3:59 PM 63.9 °F - 45.5 °F 51% 29.48 in 10.0 mi SSE 17.3 mph 21.9 mph N/A   Clear
4:16 PM 64.4 °F - 44.8 °F 49% 29.48 in 10.0 mi SSE 21.9 mph 29.9 mph N/A   Clear
4:36 PM 63.5 °F - 44.6 °F 50% 29.49 in 10.0 mi SSE 16.1 mph 24.2 mph N/A   Mostly Cloudy
4:55 PM 62.6 °F - 45.3 °F 53% 29.48 in 10.0 mi SSE 11.5 mph - N/A   Overcast
4:56 PM 62.6 °F - 45.1 °F 53% 29.48 in 10.0 mi SSE 12.7 mph - N/A   Overcast
5:15 PM 62.1 °F - 45.1 °F 54% 29.48 in 10.0 mi SE 8.1 mph - N/A   Overcast
5:19 PM 61.9 °F - 45.3 °F 55% 29.47 in 10.0 mi SE 8.1 mph - N/A   Overcast
5:37 PM 61.7 °F - 45.3 °F 55% 29.47 in 10.0 mi SE 5.8 mph - N/A   Overcast
5:55 PM 62.1 °F - 44.8 °F 53% 29.47 in 10.0 mi East 4.6 mph - N/A   Overcast
6:15 PM 60.8 °F - 45.5 °F 57% 29.46 in 10.0 mi East 4.6 mph - N/A   Overcast
6:35 PM 59.9 °F - 45.5 °F 59% 29.46 in 10.0 mi East 4.6 mph - N/A   Overcast
6:36 PM 60.1 °F - 45.5 °F 59% 29.46 in 10.0 mi East 4.6 mph - N/A   Overcast
6:59 PM 57.6 °F - 46.6 °F 67% 29.47 in 10.0 mi South 3.5 mph - N/A   Overcast
7:16 PM 57.0 °F - 46.8 °F 69% 29.48 in 10.0 mi South 4.6 mph - N/A   Overcast
7:36 PM 58.1 °F - 45.7 °F 63% 29.48 in 10.0 mi South 3.5 mph - N/A   Overcast
7:55 PM 56.3 °F - 46.2 °F 69% 29.49 in 10.0 mi Calm Calm - N/A   Mostly Cloudy
7:56 PM 56.3 °F - 46.2 °F 69% 29.49 in 10.0 mi Calm Calm - N/A   Mostly Cloudy
8:15 PM 55.4 °F - 46.0 °F 71% 29.49 in 10.0 mi Calm Calm - N/A   Overcast
8:19 PM 55.6 °F - 45.9 °F 70% 29.49 in 10.0 mi SE 3.5 mph - N/A   Overcast
8:37 PM 57.4 °F - 46.4 °F 67% 29.49 in 10.0 mi SSW 3.5 mph - N/A   Overcast
8:55 PM 57.2 °F - 46.4 °F 67% 29.50 in 10.0 mi SSW 3.5 mph - N/A   Overcast
9:15 PM 54.3 °F - 47.3 °F 77% 29.50 in 10.0 mi SE 6.9 mph - N/A   Overcast
9:35 PM 53.8 °F - 46.2 °F 76% 29.50 in 10.0 mi SSE 4.6 mph - N/A   Scattered Clouds
9:36 PM 53.4 °F - 46.0 °F 76% 29.50 in 10.0 mi SSE 4.6 mph - N/A   Scattered Clouds
9:59 PM 53.4 °F - 45.9 °F 76% 29.50 in 10.0 mi SSE 4.6 mph - N/A   Clear
10:16 PM 52.7 °F - 45.7 °F 77% 29.51 in 10.0 mi SSE 4.6 mph - N/A   Clear
10:36 PM 51.1 °F - 45.5 °F 81% 29.51 in 10.0 mi SSW 3.5 mph - N/A   Clear
10:55 PM 51.8 °F - 45.1 °F 78% 29.52 in 10.0 mi West 3.5 mph - N/A   Clear
10:56 PM 51.6 °F - 45.1 °F 79% 29.52 in 10.0 mi West 3.5 mph - N/A   Clear
11:15 PM 50.0 °F - 44.6 °F 82% 29.52 in 10.0 mi West 5.8 mph - N/A   Clear
11:19 PM 50.0 °F - 44.8 °F 82% 29.52 in 10.0 mi West 6.9 mph - N/A   Clear
11:37 PM 49.3 °F - 44.6 °F 84% 29.53 in 10.0 mi West 5.8 mph - N/A   Clear
11:55 PM 48.9 °F - 44.6 °F 85% 29.53 in 10.0 mi West 8.1 mph - N/A   Clear